GFSCGP_925_spd_159.txt.gz
Wind_Speed
16 12 15 19 16 19 21 24 24 25 20 17 25 24 24 24 28 22 29 19 25 27 25 25 27 28 22 21 26 32 34 30 31 28 25 22 19 17 15 13 13 12 12 11
13 17 20 21 17 23 23 24 25 24 23 21 21 26 29 23 28 28 23 24 23 24 26 25 30 29 30 23 28 31 34 32 30 27 23 22 20 19 17 15 13 12 12 11
17 19 19 13 17 23 19 20 23 24 26 23 20 24 25 27 25 26 24 18 20 21 23 23 23 27 28 28 29 32 33 33 32 26 21 20 21 18 17 16 14 12 11 10
16 21 19 20 22 18 21 22 22 24 21 16 21 19 24 26 25 25 24 23 22 22 20 20 24 19 27 27 31 35 34 34 29 27 25 26 23 21 19 17 13 13 12 10
21 22 12 16 14 13 20 20 21 17 22 20 25 15 19 26 29 26 25 26 25 24 22 23 22 26 29 27 31 36 33 37 32 29 27 26 22 20 19 17 16 11 10 11
24 23 19 20 19 12 15 16 20 20 15 17 24 21 19 23 31 31 29 31 29 28 24 23 22 29 29 32 32 34 35 34 31 27 27 21 27 22 20 18 19 15 14 14
13 18 21 20 15 15 17 14 7 7 10 16 19 22 21 25 28 29 29 30 29 29 24 24 22 23 26 31 32 35 34 32 30 30 26 26 26 25 22 18 17 19 18 14
9 6 4 3 13 10 16 16 10 11 9 11 17 19 20 28 27 19 17 23 27 28 23 24 23 23 25 34 35 34 36 35 32 32 28 26 26 22 20 17 19 20 21 15
7 6 6 12 12 12 11 18 19 22 22 16 15 12 25 21 28 23 21 16 27 25 25 24 24 24 34 38 36 35 34 34 34 32 31 28 23 23 25 23 25 21 18 17
2 9 10 11 18 17 18 4 6 10 9 17 15 15 13 19 27 14 17 12 13 26 26 23 23 21 38 39 36 31 36 38 37 34 31 27 26 27 25 22 23 21 20 18
2 5 7 7 9 17 8 7 10 11 14 13 7 8 14 12 26 23 17 16 15 23 24 24 22 22 41 39 34 30 34 38 35 33 30 29 31 28 25 24 22 21 20 18
5 5 12 23 23 21 20 16 15 9 12 12 14 6 17 22 19 23 21 20 20 19 25 24 23 19 14 33 35 31 35 34 34 31 32 33 31 27 25 24 23 20 19 17
1 4 7 10 9 15 12 14 13 18 17 18 8 6 9 19 9 23 22 20 20 24 25 23 24 20 16 25 31 29 31 34 34 33 34 32 29 27 26 25 22 20 19 17
8 5 13 14 20 2 4 11 9 15 10 19 17 5 17 15 16 14 19 20 17 22 21 25 25 18 18 23 27 30 31 34 35 34 33 31 28 28 26 25 22 20 18 16
2 5 13 19 24 23 21 19 19 16 20 20 16 4 9 15 13 19 17 15 18 20 25 27 22 16 15 23 29 30 30 33 34 34 33 30 29 28 26 25 22 19 17 16
2 4 15 21 20 19 19 19 19 18 16 16 21 14 9 15 15 18 16 17 23 25 23 23 22 18 15 24 29 31 32 33 35 34 33 30 30 28 26 23 21 19 18 17
3 3 6 10 7 1 6 15 18 18 18 14 15 2 5 15 15 17 20 20 25 21 21 20 19 16 20 27 31 33 34 35 35 35 33 31 29 27 24 22 21 20 19 18
3 2 3 7 11 4 9 18 4 9 9 3 11 8 4 10 12 18 24 28 22 21 21 18 16 21 27 32 35 38 36 37 37 35 32 30 28 26 23 22 21 20 19 18
10 3 4 4 4 1 14 16 10 9 6 14 9 2 3 5 2 6 16 22 22 21 19 19 26 29 33 33 35 37 38 37 36 33 30 28 26 25 23 22 21 19 18 17
13 10 3 4 3 6 8 20 18 12 4 8 4 4 7 10 2 5 11 22 21 22 26 26 29 32 31 31 36 36 37 36 33 31 30 27 25 24 24 22 20 19 17 16
8 6 6 9 3 5 15 25 13 4 7 17 7 8 6 4 5 7 14 21 20 23 29 33 32 30 31 34 36 35 36 34 33 32 30 28 26 25 23 22 19 18 17 16
5 7 5 6 5 3 24 14 7 11 17 4 14 13 15 15 14 13 15 20 23 22 28 31 30 28 28 33 35 36 34 34 33 32 30 28 25 23 22 21 18 16 15 13
2 3 4 4 4 9 12 13 13 18 1 12 14 14 16 16 14 13 15 18 19 22 27 30 31 32 31 33 33 36 34 34 33 31 29 28 26 23 20 19 17 15 11 10
5 3 3 6 1 10 12 14 15 10 12 13 15 15 15 16 15 15 14 15 17 24 27 30 31 34 33 34 34 35 34 33 33 32 30 27 26 23 20 19 18 17 13 12
2 6 6 4 4 11 8 13 13 9 12 16 15 16 17 17 15 15 14 14 17 25 28 29 31 34 35 34 34 32 32 32 32 31 30 28 26 25 26 25 19 19 23 18
2 3 3 3 8 5 7 12 11 9 12 12 17 17 16 17 16 15 13 16 22 25 30 32 34 35 34 34 33 31 31 31 31 29 26 25 25 25 25 26 28 29 25 22

GFSCGP_925_spd_162.txt.gz
Wind_Speed
16 15 15 21 18 19 23 20 23 19 21 21 19 21 25 22 22 25 24 25 25 26 21 23 30 28 18 15 30 31 31 39 37 33 27 22 23 17 20 18 23 21 17 14
14 16 21 18 24 24 22 20 24 23 22 20 19 25 24 22 23 20 21 22 25 23 24 21 25 30 30 22 28 34 30 40 35 31 27 22 27 21 21 22 19 18 15 13
19 20 17 20 17 18 22 19 22 24 23 23 22 24 23 23 23 25 22 25 22 26 21 21 22 23 31 29 29 35 37 37 34 34 29 25 25 22 21 21 18 16 16 10
18 17 18 15 22 20 23 22 23 22 21 18 20 18 22 22 24 24 26 23 24 21 23 21 22 15 30 30 34 33 33 34 37 36 23 21 19 20 19 21 17 14 13 16
22 21 22 24 23 16 18 16 18 20 19 20 28 13 18 19 24 25 25 24 27 19 21 18 24 21 28 34 35 38 39 43 39 32 22 20 20 19 24 20 22 17 16 15
24 22 22 22 22 21 20 15 21 20 18 17 27 19 21 20 25 24 24 28 25 21 17 16 16 28 30 38 36 35 34 34 31 36 31 19 16 20 22 21 21 20 20 20
19 21 20 20 21 18 13 17 10 7 9 16 18 11 18 23 25 29 24 27 23 17 18 18 18 18 23 34 35 35 36 38 37 31 33 35 23 22 24 23 24 25 25 19
11 7 6 1 16 10 15 12 10 11 11 12 5 9 9 26 23 24 24 24 22 21 19 22 21 18 26 33 37 37 37 37 39 31 31 34 40 26 29 23 29 26 20 22
7 7 12 16 7 2 7 10 19 19 17 15 17 26 17 19 18 23 24 23 28 29 28 28 24 18 30 36 36 36 38 37 40 36 33 29 30 24 26 32 30 27 26 22
6 12 13 16 9 17 20 19 5 8 7 15 16 11 8 13 9 17 22 23 29 30 29 27 23 19 35 38 38 36 38 40 38 36 33 32 32 34 32 31 28 28 29 25
4 5 9 14 9 19 12 11 12 9 8 7 13 6 9 16 14 16 16 21 16 27 29 25 21 17 36 38 40 39 41 40 37 38 36 39 37 35 27 29 29 29 29 25
7 5 11 22 27 24 21 17 16 5 6 12 10 5 10 16 17 12 23 21 16 26 25 22 20 25 26 35 37 40 43 40 40 38 39 40 39 38 27 28 29 29 29 25
2 4 7 10 2 14 9 17 18 14 15 19 12 8 6 12 15 13 13 13 21 8 21 22 21 22 21 27 36 41 43 40 39 40 38 36 43 33 28 29 30 29 28 25
11 3 11 12 20 16 11 14 13 11 9 14 11 11 15 17 16 19 19 19 14 11 9 23 21 17 12 12 28 28 33 41 42 44 41 39 34 32 30 31 31 29 27 25
3 5 12 21 25 23 23 20 20 21 18 14 16 5 7 11 14 15 18 22 19 17 24 21 21 16 19 13 26 41 31 37 40 42 44 39 34 33 32 34 30 29 28 26
3 5 12 23 22 18 22 21 20 22 21 17 17 11 13 8 10 15 17 21 25 8 21 23 22 21 18 25 25 34 41 40 41 43 38 35 33 34 35 32 30 30 27 26
2 3 5 7 14 9 2 9 18 17 18 15 15 12 10 5 7 15 11 15 17 21 20 22 21 20 18 26 32 36 36 42 43 40 35 34 34 36 33 31 31 29 27 25
4 2 3 8 14 1 3 20 18 17 8 12 4 5 4 3 5 12 13 15 19 25 19 20 19 20 28 31 35 40 38 39 40 36 35 33 34 35 32 31 30 27 25 24
6 1 4 4 5 4 9 18 12 11 9 15 14 2 3 3 3 5 17 11 7 20 16 19 29 34 33 34 36 39 37 36 35 34 33 34 34 33 31 30 28 26 24 23
12 10 2 4 5 6 6 24 20 16 3 18 19 18 7 3 4 3 11 14 13 15 20 24 36 35 34 31 38 38 36 34 33 33 35 34 33 32 31 29 27 25 23 22
7 5 4 8 3 4 14 23 18 3 6 20 23 8 7 4 6 5 2 11 13 20 23 35 36 30 29 33 38 36 35 33 35 37 37 35 33 33 31 28 25 25 23 22
5 7 4 5 5 4 22 13 6 9 23 20 9 12 15 15 13 4 5 16 17 21 23 33 35 29 32 35 39 36 35 37 37 38 38 35 32 29 28 27 24 22 20 18
1 2 4 4 4 10 12 11 13 18 4 11 8 10 14 16 11 6 10 17 18 22 27 32 33 33 34 35 35 37 36 38 37 37 36 34 32 28 25 21 18 15 14 14
1 2 3 5 4 13 7 15 16 13 10 11 11 12 14 16 12 9 10 15 17 19 24 34 36 33 33 34 34 35 36 36 38 38 33 30 33 33 31 27 25 26 23 23
2 5 5 4 6 10 6 14 14 10 8 12 12 13 15 15 12 11 11 14 15 23 28 32 33 34 34 35 34 33 35 36 36 36 34 34 36 35 34 33 30 31 25 21
2 3 2 2 6 5 5 13 13 10 9 10 13 14 14 15 12 11 11 13 19 24 30 32 34 35 35 34 33 34 33 35 36 34 30 31 31 31 31 33 38 33 29 25

GFSCGP_925_spd_165.txt.gz
Wind_Speed
13 9 8 14 15 19 9 18 20 20 17 4 7 7 10 14 14 10 18 17 15 15 20 24 25 23 6 23 36 46 39 37 44 37 38 30 29 30 27 31 25 23 19 15
10 11 11 17 15 12 19 17 23 22 15 14 12 15 14 17 16 13 8 12 17 15 13 18 20 23 17 30 27 28 35 38 31 37 29 30 29 20 28 29 26 22 17 13
11 13 17 16 13 17 16 16 15 18 15 16 12 14 11 12 12 17 16 11 11 17 20 19 19 19 17 32 35 33 27 38 25 40 31 25 28 23 24 29 23 17 16 13
10 9 16 15 16 7 14 12 19 17 14 12 3 14 17 10 14 13 15 16 13 13 12 21 22 15 20 29 39 41 36 29 27 34 33 30 27 21 25 30 25 21 15 13
14 12 15 19 19 16 20 16 8 13 12 12 10 5 28 5 14 20 17 17 19 17 15 17 21 28 26 28 35 40 41 41 41 44 36 38 17 29 32 30 25 23 21 17
17 16 17 16 18 17 18 18 10 12 7 12 11 7 26 13 17 16 16 16 18 18 20 19 18 32 28 29 36 41 44 40 42 42 42 33 28 38 32 33 32 26 22 19
15 14 18 14 17 14 10 4 3 3 3 11 3 7 18 9 18 20 18 20 16 20 20 19 18 18 24 31 34 36 37 32 34 36 33 30 36 32 37 35 32 27 23 21
2 6 11 16 8 2 13 3 4 6 4 4 2 7 10 15 23 21 24 19 21 21 19 21 11 8 24 36 36 36 36 34 41 38 33 40 39 31 33 37 34 29 26 24
5 5 21 20 15 7 2 3 3 6 8 8 8 16 16 6 7 18 16 20 18 13 17 17 10 9 31 36 39 38 38 38 41 40 32 35 35 32 30 37 36 35 28 23
3 11 9 16 12 9 10 5 4 3 5 5 6 7 2 6 6 12 15 11 9 15 17 17 8 9 27 37 39 40 42 43 42 37 36 32 30 36 40 40 37 34 29 26
5 6 9 9 7 12 5 6 5 7 7 5 3 4 1 6 7 9 14 9 6 16 9 15 15 10 30 35 36 39 37 40 39 36 34 38 40 42 40 40 39 38 31 27
2 4 6 10 22 14 17 16 13 6 5 1 1 7 13 4 7 8 16 3 6 16 20 20 24 14 26 33 37 35 37 37 35 40 42 42 40 39 41 39 38 35 32 29
3 4 5 5 3 1 3 2 10 9 11 13 8 7 4 9 9 7 11 11 10 15 23 18 29 11 22 30 31 32 37 36 44 43 42 39 37 40 42 41 39 35 34 30
13 2 7 8 17 14 19 17 15 6 4 5 7 16 11 7 10 7 7 7 10 20 24 17 16 20 21 26 23 29 36 43 44 47 43 42 39 41 44 44 39 36 32 30
5 5 7 18 22 21 23 22 20 17 13 9 14 17 18 6 11 3 3 9 11 16 18 10 17 12 13 15 20 28 32 38 48 44 45 44 43 41 44 41 40 36 32 27
5 4 4 16 19 14 18 17 17 19 16 14 17 21 18 5 7 8 10 2 7 12 2 1 24 25 22 28 31 37 32 28 45 48 45 43 44 41 41 43 40 37 32 30
3 2 3 7 12 20 2 12 10 14 10 11 11 17 15 3 5 7 9 10 7 6 8 7 19 25 24 37 38 26 40 44 43 38 42 42 39 41 40 39 37 36 34 33
4 2 3 7 10 3 2 17 12 15 10 10 12 17 13 6 3 4 3 10 7 6 12 14 19 21 34 40 45 40 37 45 36 33 35 36 40 42 39 36 34 34 35 35
4 2 3 3 5 6 4 14 12 9 11 10 11 15 19 8 5 4 11 3 7 8 12 16 28 37 40 44 47 47 35 39 36 33 33 33 39 39 35 33 32 34 37 35
6 5 3 3 4 3 3 21 21 17 5 13 17 19 19 19 3 2 11 2 14 3 19 20 36 41 43 47 48 44 37 37 35 35 36 36 35 35 33 34 37 37 38 38
5 3 3 5 4 3 9 20 19 3 6 23 22 21 19 7 1 4 4 8 10 14 24 34 40 35 39 47 49 39 37 34 37 39 38 35 34 34 34 36 37 39 39 39
3 4 3 4 3 4 19 9 6 9 23 16 9 5 12 6 2 3 7 14 1 18 25 36 33 36 38 43 48 41 39 41 42 41 39 35 34 35 38 42 39 38 37 33
1 1 2 2 4 8 12 7 12 16 15 9 9 8 6 6 6 11 11 5 12 19 24 37 38 41 40 42 43 44 42 44 43 40 36 33 36 35 32 31 31 30 27 27
1 2 2 4 0 9 10 12 14 17 8 9 9 9 8 8 13 10 8 5 18 16 24 39 39 37 38 42 42 42 43 40 40 40 39 41 43 43 41 41 38 36 34 31
0 4 3 5 5 10 3 12 16 14 8 9 10 9 8 12 15 11 10 10 18 20 30 35 36 37 38 41 40 36 43 44 42 40 41 42 44 46 46 41 36 34 28 28
1 3 2 2 5 4 10 13 16 10 8 8 8 11 11 14 14 14 9 14 21 25 32 34 35 37 36 35 39 39 39 41 42 38 35 35 37 39 41 44 42 35 32 33

GFSCGP_925_spd_168.txt.gz
Wind_Speed
7 0 7 13 12 14 9 13 14 16 16 10 15 17 15 9 6 10 15 9 10 13 17 17 20 2 26 32 33 30 29 33 33 26 19 23 28 30 28 25 25 23 19 14
4 7 15 13 16 12 11 16 19 19 16 13 14 13 12 9 7 9 13 15 9 9 11 10 14 11 29 35 38 28 39 44 35 29 34 28 27 27 26 25 26 22 18 15
6 9 8 4 7 9 14 16 16 15 19 15 7 18 10 6 6 10 14 15 11 10 11 9 9 11 24 31 36 43 40 33 41 49 29 29 22 20 22 25 23 20 19 18
6 4 6 10 12 7 14 8 12 13 6 5 4 15 21 11 12 14 16 14 13 9 9 9 7 8 29 32 41 41 38 36 34 35 29 14 20 18 18 24 21 21 19 17
8 8 8 12 17 14 17 14 17 17 13 3 5 7 24 8 12 12 11 15 17 15 10 12 9 14 16 32 35 38 40 45 49 45 35 39 30 27 31 28 26 23 23 22
9 4 6 13 10 11 14 13 7 6 2 12 14 10 17 9 17 17 12 13 15 15 14 11 16 19 15 26 36 40 42 43 50 41 39 23 26 35 35 32 31 24 22 22
6 4 3 5 8 7 12 5 3 3 1 11 13 12 19 8 11 11 16 12 12 14 14 9 15 10 8 22 29 35 43 38 40 48 40 41 35 28 36 33 32 28 25 24
4 7 5 8 9 5 2 5 3 5 4 4 3 7 6 12 13 15 16 10 16 17 9 9 11 9 9 23 30 35 37 35 39 43 42 45 41 30 35 27 22 21 23 25
5 6 15 21 11 7 4 5 6 5 3 6 5 7 9 14 8 6 8 7 10 15 15 11 10 13 15 21 31 36 34 34 37 42 44 38 32 28 34 35 37 29 26 27
2 13 10 9 7 12 12 7 4 3 3 5 4 6 8 4 4 6 10 9 10 9 14 7 7 9 21 25 35 36 36 39 41 39 43 41 41 32 35 41 41 38 31 30
4 6 6 6 5 5 3 2 1 3 4 4 4 5 7 4 1 5 9 13 10 12 8 6 4 6 24 29 31 30 34 37 40 46 44 41 31 35 37 35 40 39 34 31
3 4 6 10 19 13 11 8 6 4 4 5 3 5 10 3 4 1 12 13 9 7 8 7 8 7 14 25 28 28 29 41 45 45 43 40 39 39 40 41 41 39 35 31
4 4 4 6 3 3 3 6 6 6 4 10 10 4 2 4 9 2 10 7 7 8 10 7 7 7 9 21 26 26 33 36 43 46 43 37 40 39 41 42 43 42 39 33
8 4 7 9 13 6 11 17 15 11 5 8 15 12 13 10 13 8 8 6 8 9 5 5 8 7 10 18 23 28 32 40 41 42 41 37 38 40 41 39 41 43 38 35
7 5 7 16 19 20 20 20 20 15 17 13 18 13 14 15 16 7 7 6 11 8 8 9 13 9 12 9 21 30 32 36 39 40 40 37 41 45 38 36 41 42 38 34
2 3 4 12 16 15 15 10 15 6 15 18 20 18 8 13 6 4 6 7 9 8 13 9 7 12 12 11 23 33 33 36 41 43 42 43 41 46 42 39 39 41 36 31
2 3 3 5 9 14 3 7 10 13 12 6 5 3 6 8 10 6 9 10 12 11 13 6 10 18 17 25 35 33 34 38 41 41 43 43 43 39 40 40 40 39 38 33
3 2 3 5 9 3 4 10 9 14 17 11 12 13 12 14 14 15 6 7 12 6 8 9 15 20 33 39 44 36 45 40 47 43 39 43 46 37 34 41 42 38 39 35
5 1 4 2 3 6 4 6 12 7 9 3 15 17 15 16 13 5 7 6 5 7 2 10 27 38 42 46 49 42 34 43 41 46 44 40 38 36 39 37 36 39 40 37
6 5 3 2 4 4 4 16 18 11 5 16 21 20 18 11 5 4 8 7 7 9 8 9 33 43 44 40 48 50 39 41 37 35 39 36 37 39 36 34 38 37 40 37
6 3 3 4 4 1 8 18 18 3 7 22 22 23 19 5 5 7 12 9 4 9 21 33 38 37 38 43 46 41 43 39 38 39 39 33 40 35 35 42 38 37 38 37
3 4 2 3 3 5 12 6 4 8 17 20 20 15 10 1 7 7 8 1 13 16 26 33 32 35 37 38 44 41 37 43 45 41 39 38 35 34 40 40 36 35 36 35
2 3 2 4 5 3 5 8 9 13 16 11 14 12 8 5 5 5 4 13 11 16 19 31 34 40 33 38 45 39 37 43 45 43 38 36 37 35 33 34 30 29 30 31
1 2 3 4 0 5 12 7 11 16 17 12 11 9 7 4 4 12 16 15 12 15 21 33 36 34 33 38 42 42 40 42 45 42 41 42 40 38 36 31 29 31 31 31
1 3 3 8 9 11 3 12 14 17 14 12 12 7 8 6 10 18 17 17 10 16 34 35 35 35 34 38 37 40 43 49 43 44 42 40 40 40 39 35 33 35 34 36
2 3 2 3 6 4 9 11 16 15 9 11 10 10 9 9 13 18 18 15 15 17 34 30 34 37 35 39 38 38 41 46 46 40 36 35 37 37 39 42 44 39 36 33

GFSCGP_925_spd_171.txt.gz
Wind_Speed
2 2 7 12 10 14 12 11 11 12 10 6 13 16 18 12 9 11 12 8 9 11 6 1 9 10 17 28 33 37 38 43 39 34 32 26 26 24 23 20 18 18 17 14
2 7 15 11 9 8 11 13 14 9 9 6 14 18 18 13 11 15 15 11 8 9 8 2 6 12 18 31 31 34 38 42 42 38 28 24 30 25 23 21 19 17 15 14
8 9 3 7 5 7 7 6 10 13 17 12 10 16 11 8 7 8 11 11 6 10 11 4 5 12 18 24 34 35 36 36 36 37 31 21 19 18 19 17 17 18 16 15
6 5 4 7 8 7 15 10 12 11 8 11 4 19 15 8 14 13 19 18 17 10 8 5 5 7 18 26 34 36 40 39 38 37 33 32 22 17 15 23 19 18 19 18
9 4 8 8 12 12 13 13 14 12 11 13 3 7 2 4 12 14 13 17 17 13 9 10 9 14 21 25 28 36 40 37 35 32 32 25 23 20 19 21 22 19 24 21
5 6 5 5 3 1 7 5 4 0 2 12 11 11 12 8 13 9 7 12 16 15 7 8 9 15 21 25 28 28 34 33 30 32 32 32 27 22 24 27 26 27 25 24
6 4 1 4 4 6 7 5 4 3 1 8 7 11 19 7 7 7 9 10 13 13 6 8 7 7 15 25 24 28 32 29 33 34 33 28 26 28 30 28 28 24 23 24
3 6 5 7 6 6 7 6 3 6 4 5 5 6 6 14 17 10 8 10 9 9 7 9 9 8 14 22 26 27 31 31 35 39 33 31 34 37 35 19 20 24 25 25
4 6 14 19 20 3 2 4 5 5 6 8 5 6 6 10 10 4 3 3 7 9 10 9 9 8 16 22 26 29 29 31 37 41 34 31 31 35 34 28 31 30 29 23
4 11 9 7 4 9 9 5 3 4 4 5 4 4 6 4 1 3 4 6 8 9 12 10 8 8 17 26 31 34 32 35 40 38 35 36 33 33 35 30 28 29 29 29
3 5 5 6 6 5 1 2 2 3 3 3 4 4 5 6 4 5 7 8 8 8 10 11 7 4 7 25 32 32 32 34 36 40 34 38 33 34 37 37 37 36 30 27
7 4 6 16 18 10 9 11 5 4 4 4 3 11 9 4 5 5 8 10 10 9 10 8 7 7 5 12 24 29 32 35 38 41 43 41 36 35 35 37 36 36 35 30
4 3 5 8 5 2 2 4 8 8 6 12 8 6 2 7 8 10 10 11 13 11 11 11 7 7 3 6 22 30 33 36 38 43 43 37 38 39 36 38 40 38 36 31
8 7 11 12 12 7 9 12 14 8 4 10 17 23 15 17 19 14 15 14 13 9 11 10 7 8 4 6 21 27 30 34 35 40 39 36 37 39 42 43 43 41 36 34
6 5 7 12 18 20 21 20 18 16 17 11 19 17 16 9 11 18 20 15 9 9 11 9 10 10 7 7 21 31 29 34 34 37 39 38 38 43 45 44 45 42 38 35
2 3 3 6 18 17 20 13 10 14 12 10 14 19 8 8 10 14 15 15 9 13 12 13 14 10 6 11 22 33 30 34 38 39 40 41 42 41 45 44 44 40 39 36
1 2 3 5 7 10 6 6 5 13 13 10 7 5 12 13 15 15 18 17 18 15 10 16 15 7 12 18 35 34 33 36 38 42 41 42 43 40 42 49 46 40 38 35
3 2 2 7 7 3 4 5 5 13 18 8 11 13 16 14 17 19 22 18 16 11 11 14 9 14 23 33 39 42 40 39 41 41 41 43 46 41 37 39 44 40 37 35
4 2 3 4 2 7 7 4 8 10 11 2 12 15 19 18 18 22 17 7 7 4 6 9 18 34 34 38 44 44 41 41 43 43 43 42 45 53 38 42 38 34 40 38
4 4 3 3 4 4 1 14 13 10 5 16 19 19 21 21 9 14 8 9 7 5 3 8 26 40 42 41 47 44 36 37 38 40 47 48 49 51 47 38 38 34 40 38
4 2 3 4 4 6 6 12 12 2 6 22 20 22 21 15 10 15 18 19 9 7 3 17 32 36 44 50 51 41 39 33 37 38 39 47 51 50 45 38 37 42 40 39
3 3 2 2 4 6 7 4 5 7 12 16 20 21 20 18 18 13 14 15 7 11 13 30 28 33 42 49 53 41 39 40 46 44 32 49 47 44 40 40 38 42 41 37
3 4 2 4 5 2 1 7 7 13 16 13 19 19 18 17 16 14 8 4 17 19 17 33 33 34 34 38 52 46 38 41 46 43 42 39 39 39 41 41 41 39 36 34
3 2 3 2 3 5 11 6 10 15 16 20 19 17 15 13 10 5 11 11 16 17 21 33 37 34 35 42 43 46 43 43 44 43 41 39 38 35 35 35 38 39 32 30
2 1 3 6 9 10 3 10 14 19 18 19 18 16 13 11 5 13 17 15 13 16 28 30 31 35 37 40 40 42 43 47 44 42 38 36 36 40 40 38 35 34 30 33
4 4 3 4 4 7 11 13 17 16 18 17 16 15 12 7 12 17 18 16 13 16 27 29 35 39 39 41 39 40 40 46 46 41 35 33 36 39 41 41 37 34 33 31

GFSCGP_925_spd_174.txt.gz
Wind_Speed
2 3 6 12 8 7 6 6 11 12 12 5 13 17 13 14 10 11 10 8 7 9 8 13 12 13 15 15 26 31 35 36 41 36 30 29 30 28 25 22 19 20 19 12
3 7 13 8 6 6 7 7 8 9 12 6 11 18 15 13 10 15 15 12 8 5 5 8 14 13 14 22 27 33 39 35 30 35 34 28 28 29 27 22 20 20 19 15
9 10 1 5 5 6 5 6 8 15 15 6 8 20 9 9 8 11 13 10 8 10 9 8 8 13 11 18 23 31 34 36 36 33 31 24 25 20 21 22 21 21 20 19
6 5 5 4 5 5 10 9 12 12 8 6 4 12 5 8 15 11 14 10 10 9 7 8 8 9 15 21 23 25 29 33 33 34 30 31 26 21 21 26 25 26 22 22
8 3 7 7 8 3 6 6 7 12 11 5 6 4 5 2 5 10 9 12 12 6 8 10 9 16 21 19 23 25 29 30 33 32 31 32 24 23 24 25 27 27 25 24
5 5 4 5 3 2 3 5 10 3 2 7 11 10 4 5 7 6 6 8 7 4 7 8 11 15 20 23 17 26 27 32 33 37 33 30 29 28 29 29 30 28 26 20
7 5 3 3 5 6 8 5 4 5 0 5 5 7 14 13 9 9 10 9 6 2 5 7 7 7 15 20 20 24 27 26 34 34 33 33 34 34 37 34 33 30 23 20
2 8 3 1 2 5 7 6 4 5 3 4 3 7 5 9 11 8 7 7 5 4 1 6 7 7 14 21 22 21 27 24 33 35 33 36 35 34 35 39 36 27 23 12
4 6 5 13 15 8 3 4 3 2 4 6 4 6 8 11 9 6 6 1 3 5 4 7 6 9 15 22 24 25 24 28 34 34 35 34 36 36 36 37 35 34 28 28
4 12 5 3 2 7 6 5 2 2 4 5 5 5 6 7 4 4 6 7 7 4 5 6 6 7 17 26 28 30 27 31 36 38 35 37 37 35 38 34 31 30 28 30
1 5 7 5 5 5 2 3 3 3 3 3 5 5 6 7 7 5 6 8 8 8 5 5 7 10 7 20 24 28 29 25 31 38 35 34 36 31 38 31 32 34 34 34
3 4 7 9 15 7 5 4 5 3 3 4 4 10 7 5 5 4 8 9 11 7 6 4 6 8 14 11 27 25 26 28 35 36 35 34 35 32 35 34 35 37 36 33
4 4 4 8 3 3 3 4 8 6 5 13 7 8 1 5 7 8 7 8 13 15 14 5 5 6 6 15 19 26 25 30 34 35 36 34 35 35 34 39 37 39 39 35
10 5 9 10 11 4 7 9 10 8 4 7 11 22 20 19 20 19 12 9 11 15 14 6 6 7 7 17 15 27 27 32 35 34 36 35 37 39 40 41 40 40 41 37
2 5 7 16 18 19 24 23 18 16 15 11 12 17 16 15 14 12 13 14 14 15 13 7 6 7 7 15 17 28 29 32 36 34 34 36 38 42 43 43 42 42 40 36
1 3 3 8 18 16 20 19 16 15 9 11 13 19 9 14 14 15 14 13 15 16 14 12 8 9 10 14 17 29 31 33 39 36 36 40 42 42 43 44 46 45 42 36
2 2 3 5 7 14 8 5 2 2 10 12 9 5 11 18 20 19 18 17 18 18 17 16 15 14 14 19 23 31 30 37 41 40 40 41 42 42 41 44 42 43 40 40
3 2 2 5 6 4 2 5 4 9 16 8 7 11 14 16 19 22 20 22 21 19 19 17 13 13 23 23 29 34 36 42 42 41 42 43 44 45 45 47 46 42 36 36
7 1 3 3 2 9 9 3 5 9 21 6 5 18 21 18 22 21 12 8 15 15 14 16 16 23 23 26 38 39 38 42 43 40 42 45 51 50 50 50 45 42 36 34
5 7 3 2 4 4 1 8 12 8 7 6 16 20 20 18 12 16 16 18 18 17 15 9 21 15 26 31 41 40 36 39 39 40 42 47 54 50 46 43 49 40 36 34
4 2 5 4 4 6 2 11 9 1 6 18 18 20 20 16 13 21 25 25 15 14 11 18 22 22 35 34 43 35 37 38 43 45 43 42 40 50 54 48 43 42 41 37
3 2 3 2 3 6 1 4 2 6 14 18 20 20 22 22 25 23 21 19 13 5 7 25 21 22 32 40 44 34 35 44 51 51 48 44 47 42 42 52 42 41 42 39
3 4 2 5 5 2 5 7 8 9 16 19 19 23 23 23 23 24 20 10 6 15 14 27 28 28 32 38 46 42 39 46 52 53 49 46 44 44 42 42 42 38 35 33
3 3 3 2 3 4 12 7 6 15 17 20 20 22 24 21 20 14 9 17 9 16 15 29 29 26 29 40 43 47 48 46 48 53 47 49 40 40 33 36 34 34 31 30
3 2 4 5 8 10 6 10 13 17 19 19 21 22 20 15 12 15 17 17 16 17 22 29 27 29 32 41 43 44 52 54 43 49 44 38 37 37 38 35 33 35 30 34
4 4 2 3 4 6 11 13 18 17 18 19 20 20 16 12 7 19 16 14 14 16 26 28 31 36 37 39 45 44 47 51 48 43 38 35 35 37 39 42 40 35 34 32